FW7008 Weather Reports


Display with metric or nautical units.
time (UTC)temp
F
wind
direction
speed
MPH
gust
MPH
rain 1hr
in
rain 24hr
in
rain mn
in
humidity
%
barometer
mb
20260906014629 74 254 0.0 0.0 0.00 0.00 0.00 87 1012.5
20260906014125 75 238 0.0 0.0 0.00 0.00 0.00 87 1012.5
20260906013620 74 226 2.0 3.0 0.00 0.00 0.00 88 1012.5
20260906013116 74 268 8.0 9.0 0.00 0.00 0.00 88 1012.5
20260906012611 74 298 0.0 3.0 0.00 0.00 0.00 88 1012.5
20260906012111 75 232 8.0 11.0 0.00 0.00 0.00 88 1012.5
20260906011607 75 264 10.0 11.0 0.00 0.00 0.00 87 1012.5
20260906011106 75 256 3.0 5.0 0.00 0.00 0.00 84 1012.5
20260906010556 76 256 8.0 10.0 0.00 0.00 0.00 83 1012.5
20260906010053 77 243 10.0 11.0 0.00 0.00 0.00 83 1012.2
20260906005551 77 269 9.0 10.0 0.00 0.00 0.00 81 1012.5
20260906005050 77 267 6.0 7.0 0.00 0.00 0.00 82 1012.5
20260906004550 75 215 5.0 7.0 0.00 0.00 0.00 83 1012.5
20260906004045 75 243 9.0 13.0 0.00 0.00 0.00 85 1012.5
20260906003540 75 253 11.0 13.0 0.00 0.00 0.00 85 1012.2
20260906003036 76 244 11.0 13.0 0.00 0.00 0.00 83 1012.5
20260906002531 76 257 6.0 8.0 0.00 0.00 0.00 82 1012.2
20260906002026 76 250 5.0 6.0 0.00 0.00 0.00 82 1012.5
20260906001521 76 187 7.0 10.0 0.00 0.00 0.00 81 1012.5
20260906001021 76 227 9.0 11.0 0.00 0.00 0.00 81 1012.2
20260906000517 76 160 7.0 10.0 0.00 0.00 0.00 81 1012.2
20260906000012 76 266 12.0 14.0 0.00 0.00 0.00 80 1012.5
20260905235511 76 253 6.0 8.0 0.00 0.00 0.00 79 1012.2
20260905235007 77 265 12.0 15.0 0.00 0.00 0.00 79 1012.5
20260905234503 77 230 7.0 10.0 0.00 0.00 0.00 78 1012.2
20260905233956 77 242 7.0 9.0 0.00 0.00 0.00 77 1012.5
20260905233452 77 197 9.0 11.0 0.00 0.00 0.00 77 1012.5
20260905232950 78 219 8.0 10.0 0.00 0.00 0.00 77 1012.2
20260905232447 78 225 7.0 8.0 0.00 0.00 0.00 76 1012.2
20260905231942 78 243 7.0 13.0 0.00 0.00 0.00 76 1012.2
20260905231438 79 245 8.0 10.0 0.00 0.00 0.00 75 1012.5
20260905230934 79 228 6.0 8.0 0.00 0.00 0.00 74 1012.5
20260905230433 80 224 6.0 8.0 0.00 0.00 0.00 72 1012.2
20260905225931 80 226 3.0 5.0 0.00 0.00 0.00 72 1012.5
20260905225426 80 248 4.0 6.0 0.00 0.00 0.00 70 1012.9
20260905224921 81 250 9.0 10.0 0.00 0.00 0.00 69 1012.5
20260905224416 80 273 0.0 0.0 0.00 0.00 0.00 70 1012.5
20260905223910 80 271 10.0 11.0 0.00 0.00 0.00 69 1012.9
20260905223409 80 262 6.0 8.0 0.00 0.00 0.00 70 1012.9
20260905222909 81 245 2.0 11.0 0.00 0.00 0.00 70 1012.9
20260905222408 80 275 6.0 7.0 0.00 0.00 0.00 70 1012.9
20260905221904 80 264 9.0 10.0 0.00 0.00 0.00 70 1012.9
20260905221401 80 215 7.0 8.0 0.00 0.00 0.00 72 1012.9
20260905220856 81 235 4.0 8.0 0.00 0.00 0.00 70 1012.9
20260905220352 82 229 7.0 8.0 0.00 0.00 0.00 70 1012.9
20260905215851 79 185 6.0 8.0 0.00 0.00 0.00 73 1013.2
20260905215347 80 248 7.0 8.0 0.00 0.00 0.00 72 1012.9
20260905214843 80 251 9.0 10.0 0.00 0.00 0.00 71 1013.2
20260905214338 81 242 7.0 9.0 0.00 0.00 0.00 70 1013.2
20260905213833 82 219 5.0 8.0 0.00 0.00 0.00 71 1013.2
20260905213324 80 255 5.0 9.0 0.00 0.00 0.00 71 1013.5
20260905212819 80 232 1.0 1.0 0.00 0.00 0.00 70 1013.2
20260905212318 80 254 7.0 9.0 0.00 0.00 0.00 71 1013.2
20260905211813 80 273 9.0 10.0 0.00 0.00 0.00 72 1013.5
20260905211308 79 279 7.0 11.0 0.00 0.00 0.00 73 1013.2
20260905210804 80 257 5.0 7.0 0.00 0.00 0.00 72 1013.2
20260905210304 81 212 7.0 9.0 0.00 0.00 0.00 72 1013.5
20260905205803 81 219 6.0 8.0 0.00 0.00 0.00 73 1013.5
20260905205258 82 246 7.0 10.0 0.00 0.00 0.00 70 1013.5
20260905204757 81 266 9.0 10.0 0.00 0.00 0.00 72 1013.5
20260905204254 81 154 4.0 6.0 0.00 0.00 0.00 72 1013.5
20260905203752 80 228 1.0 3.0 0.00 0.00 0.00 73 1013.9
20260905203248 80 271 0.0 1.0 0.00 0.00 0.00 73 1013.9
20260905202743 80 220 7.0 8.0 0.00 0.00 0.00 74 1013.5
20260905202238 80 247 5.0 7.0 0.00 0.00 0.00 74 1013.9
20260905201734 79 227 6.0 8.0 0.00 0.00 0.00 74 1013.9
20260905201228 79 293 5.0 7.0 0.00 0.00 0.00 74 1013.9
20260905200723 79 239 8.0 10.0 0.00 0.00 0.00 75 1013.9
20260905200219 80 216 5.0 6.0 0.00 0.00 0.00 73 1013.9
20260905195717 80 231 6.0 7.0 0.00 0.00 0.00 73 1014.2
20260905195212 79 269 7.0 8.0 0.00 0.00 0.00 73 1014.2
20260905194708 80 231 6.0 7.0 0.00 0.00 0.00 73 1014.2
20260905194208 79 230 6.0 7.0 0.00 0.00 0.00 74 1014.2
20260905193702 79 286 7.0 9.0 0.00 0.00 0.00 74 1014.2
20260905193157 79 242 6.0 7.0 0.00 0.00 0.00 76 1014.6
20260905192653 80 244 3.0 6.0 0.00 0.00 0.00 74 1014.6
20260905192149 79 232 4.0 5.0 0.00 0.00 0.00 73 1014.6
20260905191648 79 273 6.0 8.0 0.00 0.00 0.00 73 1014.6
20260905191146 79 261 8.0 8.0 0.00 0.00 0.00 73 1014.6
20260905190644 79 239 0.0 0.0 0.00 0.00 0.00 73 1014.6
20260905190143 80 250 7.0 8.0 0.00 0.00 0.00 72 1014.6
20260905185638 80 230 6.0 6.0 0.00 0.00 0.00 70 1014.6
20260905185138 79 144 2.0 2.0 0.00 0.00 0.00 73 1014.6
20260905184632 80 279 3.0 5.0 0.00 0.00 0.00 70 1014.6
20260905184131 80 214 3.0 3.0 0.00 0.00 0.00 71 1014.9
20260905183631 80 245 4.0 6.0 0.00 0.00 0.00 71 1014.9
20260905183126 79 282 6.0 7.0 0.00 0.00 0.00 71 1014.9
20260905182625 80 235 5.0 6.0 0.00 0.00 0.00 71 1014.9
20260905182125 78 242 5.0 6.0 0.00 0.00 0.00 72 1014.9
20260905181620 79 272 0.0 0.0 0.00 0.00 0.00 71 1014.9
20260905181119 80 260 0.0 0.0 0.00 0.00 0.00 70 1014.9
20260905180614 80 185 0.0 0.0 0.00 0.00 0.00 68 1014.9
20260905180110 81 42 0.0 0.0 0.00 0.00 0.00 60 1014.9
20260905175609 82 123 0.0 0.0 0.00 0.00 0.00 60 1014.9
20260905175104 82 26 0.0 0.0 0.00 0.00 0.00 60 1014.9
20260905174600 81 58 0.0 0.0 0.00 0.00 0.00 62 1014.9
20260905174054 79 152 0.0 0.0 0.00 0.00 0.00 66 1014.9
20260905173551 80 118 0.0 0.0 0.00 0.00 0.00 64 1014.9
20260905173046 81 146 0.0 0.0 0.00 0.00 0.00 63 1014.9
20260905172545 79 43 0.0 0.0 0.00 0.00 0.00 66 1014.9
20260905172040 78 4 0.0 0.0 0.00 0.00 0.00 68 1014.6
20260905171537 79 81 0.0 0.0 0.00 0.00 0.00 70 1014.9
20260905171032 78 48 0.0 0.0 0.00 0.00 0.00 69 1014.6
20260905170529 77 88 0.0 0.0 0.00 0.00 0.00 71 1014.9
20260905170024 77 88 0.0 0.0 0.00 0.00 0.00 72 1014.9
20260905165518 77 121 0.0 0.0 0.00 0.00 0.00 73 1014.9
20260905165014 77 49 0.0 0.0 0.00 0.00 0.00 73 1014.9
20260905164508 77 51 0.0 0.0 0.00 0.00 0.00 72 1014.9
20260905164003 77 57 0.0 0.0 0.00 0.00 0.00 76 1014.9
20260905163459 75 147 0.0 0.0 0.00 0.00 0.00 79 1014.9
20260905162955 75 301 0.0 0.0 0.00 0.00 0.00 79 1014.9
20260905162450 75 46 0.0 0.0 0.00 0.00 0.00 79 1014.9
20260905161944 74 31 0.0 0.0 0.00 0.00 0.00 81 1014.6
20260905161443 74 87 0.0 0.0 0.00 0.00 0.00 82 1014.9
20260905160941 73 37 0.0 0.0 0.00 0.00 0.00 83 1014.9
20260905160436 73 114 0.0 0.0 0.00 0.00 0.00 84 1014.6
20260905155935 72 63 0.0 0.0 0.00 0.00 0.00 86 1014.6
20260905155430 72 80 0.0 0.0 0.00 0.00 0.00 86 1014.6
20260905154929 72 359 0.0 0.0 0.00 0.00 0.00 85 1014.9
20260905154425 72 49 0.0 0.0 0.00 0.00 0.00 87 1014.9
20260905153920 71 46 0.0 0.0 0.00 0.00 0.00 90 1014.6
20260905153417 70 36 0.0 0.0 0.00 0.00 0.00 91 1014.9
20260905152916 70 35 0.0 0.0 0.00 0.00 0.00 91 1014.6
20260905152415 69 16 0.0 0.0 0.00 0.00 0.00 92 1014.6
20260905151910 69 9 0.0 0.0 0.00 0.00 0.00 92 1014.6
20260905151406 69 0 0.0 0.0 0.00 0.00 0.00 92 1014.6
20260905150901 69 14 0.0 0.0 0.00 0.00 0.00 92 1014.6
20260905150400 68 21 0.0 0.0 0.00 0.00 0.00 93 1014.6
20260905145858 67 10 0.0 0.0 0.00 0.00 0.00 94 1014.6
20260905145352 67 19 0.0 0.0 0.00 0.00 0.00 95 1014.2
20260905144852 66 347 0.0 0.0 0.00 0.00 0.00 97 1014.2
20260905144347 66 71 0.0 0.0 0.00 0.00 0.00 98 1014.6
20260905143845 66 74 0.0 0.0 0.00 0.00 0.00 98 1014.2
20260905143340 66 80 0.0 0.0 0.00 0.00 0.00 98 1014.2
20260905142839 66 80 0.0 0.0 0.00 0.00 0.00 99 1014.2
20260905142332 65 81 0.0 0.0 0.00 0.00 0.00 99 1014.2
20260905141829 64 83 0.0 0.0 0.00 0.00 0.00 99 1014.2
20260905141324 64 83 0.0 0.0 0.00 0.00 0.00 99 1014.2
20260905140820 63 84 0.0 0.0 0.00 0.00 0.00 99 1013.9
20260905140319 63 83 0.0 0.0 0.00 0.00 0.00 99 1013.9
20260905135818 62 83 0.0 0.0 0.00 0.00 0.00 99 1013.9
20260905135314 62 83 0.0 0.0 0.00 0.00 0.00 99 1013.9
20260905134810 62 83 0.0 0.0 0.00 0.00 0.00 99 1013.5
20260905134308 62 83 0.0 0.0 0.00 0.00 0.00 99 1013.5
20260905133803 62 83 0.0 0.0 0.00 0.00 0.00 99 1013.5
20260905133258 62 83 0.0 0.0 0.00 0.00 0.00 99 1013.5
20260905132757 62 83 0.0 0.0 0.00 0.00 0.00 99 1013.5
20260905132253 62 83 0.0 0.0 0.00 0.00 0.00 99 1013.5
20260905131748 61 83 0.0 0.0 0.00 0.00 0.00 99 1013.5
20260905131243 62 83 0.0 0.0 0.00 0.00 0.00 99 1013.2
20260905130738 62 83 0.0 0.0 0.00 0.00 0.00 99 1013.5
20260905130237 62 83 0.0 0.0 0.00 0.00 0.00 99 1013.5
20260905125732 62 83 0.0 0.0 0.00 0.00 0.00 99 1013.2
20260905125227 62 83 0.0 0.0 0.00 0.00 0.00 99 1013.5
20260905124723 63 83 0.0 0.0 0.00 0.00 0.00 99 1013.2
20260905124219 62 83 0.0 0.0 0.00 0.00 0.00 99 1013.2
20260905123714 62 83 0.0 0.0 0.00 0.00 0.00 99 1013.5
20260905123211 62 83 0.0 0.0 0.00 0.00 0.00 99 1013.5
20260905122710 62 83 0.0 0.0 0.00 0.00 0.00 99 1013.2
20260905122200 63 83 0.0 0.0 0.00 0.00 0.00 99 1013.5
20260905121654 63 83 0.0 0.0 0.00 0.00 0.00 99 1013.2
20260905121150 62 83 0.0 0.0 0.00 0.00 0.00 99 1013.5
20260905120649 62 84 0.0 0.0 0.00 0.00 0.00 99 1013.5
20260905120144 63 84 0.0 0.0 0.00 0.00 0.00 99 1013.5
20260905115644 62 84 0.0 0.0 0.00 0.00 0.00 99 1013.2
20260905115138 62 84 0.0 0.0 0.00 0.00 0.00 99 1013.2
20260905114638 62 84 0.0 0.0 0.00 0.00 0.00 99 1013.2
20260905114137 62 84 0.0 0.0 0.00 0.00 0.00 98 1013.5
20260905113632 63 84 0.0 0.0 0.00 0.00 0.00 98 1013.5
20260905113127 63 84 0.0 0.0 0.00 0.00 0.00 98 1013.2
20260905112621 63 84 0.0 0.0 0.00 0.00 0.00 98 1013.2
20260905112117 63 84 0.0 0.0 0.00 0.00 0.00 98 1013.5
20260905111612 63 84 0.0 0.0 0.00 0.00 0.00 98 1013.5
20260905111111 63 84 0.0 0.0 0.00 0.00 0.00 98 1013.5
20260905110610 63 84 0.0 0.0 0.00 0.00 0.00 98 1013.5
20260905110106 63 84 0.0 0.0 0.00 0.00 0.00 98 1013.9
20260905105600 64 84 0.0 0.0 0.00 0.00 0.00 98 1013.5
20260905105100 63 84 0.0 0.0 0.00 0.00 0.00 98 1013.5
20260905104556 63 84 0.0 0.0 0.00 0.00 0.00 98 1013.5
20260905104055 63 84 0.0 0.0 0.00 0.00 0.00 97 1013.5
20260905103550 63 84 0.0 0.0 0.00 0.00 0.00 97 1013.5
20260905103047 63 84 0.0 0.0 0.00 0.00 0.00 97 1013.2
20260905102542 64 84 0.0 0.0 0.00 0.00 0.00 97 1013.5
20260905102039 64 84 0.0 0.0 0.00 0.00 0.00 97 1013.5
20260905101536 64 84 0.0 0.0 0.00 0.00 0.00 97 1013.5
20260905101034 65 84 0.0 0.0 0.00 0.00 0.00 97 1013.5
20260905100526 65 84 0.0 0.0 0.00 0.00 0.00 97 1013.9
20260905100025 65 84 0.0 0.0 0.00 0.00 0.00 97 1013.5
20260905095520 64 84 0.0 0.0 0.00 0.00 0.00 96 1013.5
20260905095015 64 85 0.0 0.0 0.00 0.00 0.00 96 1013.5
20260905094510 65 85 0.0 0.0 0.00 0.00 0.00 95 1013.5
20260905094009 65 85 0.0 0.0 0.00 0.00 0.00 95 1013.5
20260905093504 65 85 0.0 0.0 0.00 0.00 0.00 95 1013.5
20260905093000 65 85 0.0 0.0 0.00 0.00 0.00 95 1013.5
20260905092455 65 85 0.0 0.0 0.00 0.00 0.00 95 1013.5
20260905091945 66 86 0.0 0.0 0.00 0.00 0.00 94 1013.5
20260905091444 66 86 0.0 0.0 0.00 0.00 0.00 94 1013.5
20260905090944 66 86 0.0 0.0 0.00 0.00 0.00 94 1013.9
20260905090439 66 86 0.0 0.0 0.00 0.00 0.00 94 1013.9
20260905085938 66 87 0.0 0.0 0.00 0.00 0.00 93 1013.9
20260905085432 66 91 0.0 0.0 0.00 0.00 0.00 93 1013.9
20260905084928 66 104 0.0 0.0 0.00 0.00 0.00 93 1013.9
20260905084427 66 112 0.0 0.0 0.00 0.00 0.00 93 1013.9
20260905083922 66 111 0.0 0.0 0.00 0.00 0.00 93 1013.5
20260905083418 66 112 0.0 0.0 0.00 0.00 0.00 93 1013.9
20260905082914 66 112 0.0 0.0 0.00 0.00 0.00 93 1013.5
20260905082409 66 111 0.0 0.0 0.00 0.00 0.00 93 1013.9
20260905081904 66 111 0.0 0.0 0.00 0.00 0.00 93 1013.9
20260905081359 66 111 0.0 0.0 0.00 0.00 0.00 93 1013.9
20260905080858 66 111 0.0 0.0 0.00 0.00 0.00 93 1013.9
20260905080353 66 111 0.0 0.0 0.00 0.00 0.00 93 1013.9
20260905075852 66 111 0.0 0.0 0.00 0.00 0.00 93 1013.9
20260905075351 66 112 0.0 0.0 0.00 0.00 0.00 93 1013.9
20260905074850 66 113 0.0 0.0 0.00 0.00 0.00 93 1013.9
20260905074346 67 116 0.0 0.0 0.00 0.00 0.00 93 1013.9
20260905073841 67 114 0.0 0.0 0.00 0.00 0.00 93 1013.9
20260905073336 67 114 0.0 0.0 0.00 0.00 0.00 94 1013.9
20260905072831 67 114 0.0 0.0 0.00 0.00 0.00 94 1013.9
20260905072326 67 115 0.0 0.0 0.00 0.00 0.00 94 1013.9
20260905071823 68 117 0.0 0.0 0.00 0.00 0.00 94 1013.9
20260905071320 68 118 0.0 0.0 0.00 0.00 0.00 94 1013.9
20260905070813 68 127 0.0 0.0 0.00 0.00 0.00 94 1013.9
20260905070305 68 141 0.0 0.0 0.00 0.00 0.00 94 1013.5
20260905065803 68 127 0.0 0.0 0.00 0.00 0.00 94 1013.9
20260905065306 68 118 0.0 0.0 0.00 0.00 0.00 94 1013.9
20260905064757 68 119 0.0 0.0 0.00 0.00 0.00 94 1013.9
20260905064247 68 121 0.0 0.0 0.00 0.00 0.00 94 1013.9
20260905063745 68 133 0.0 0.0 0.00 0.00 0.00 94 1013.9
20260905063242 68 181 0.0 0.0 0.00 0.00 0.00 94 1013.9
20260905062737 68 159 0.0 0.0 0.00 0.00 0.00 94 1013.5
20260905062238 68 189 0.0 0.0 0.00 0.00 0.00 94 1013.9
20260905061737 68 252 0.0 0.0 0.00 0.00 0.00 94 1013.5
20260905061232 68 190 0.0 0.0 0.00 0.00 0.00 94 1013.5
20260905060726 69 225 0.0 0.0 0.00 0.00 0.00 94 1013.9
20260905060223 69 166 0.0 0.0 0.00 0.00 0.00 95 1013.9
20260905055716 69 213 0.0 0.0 0.00 0.00 0.00 94 1013.5
20260905055211 69 234 0.0 0.0 0.00 0.00 0.00 94 1013.5
20260905054707 69 227 0.0 0.0 0.00 0.00 0.00 94 1013.2
20260905054203 69 227 0.0 0.0 0.00 0.00 0.00 94 1013.5
20260905053702 69 236 0.0 0.0 0.00 0.00 0.00 94 1013.5
20260905053156 69 226 0.0 0.0 0.00 0.00 0.00 94 1013.5
20260905052651 69 236 0.0 0.0 0.00 0.00 0.00 94 1013.5
20260905052146 69 243 0.0 0.0 0.00 0.00 0.00 94 1013.5
20260905051641 69 182 0.0 2.0 0.00 0.00 0.00 94 1013.5
20260905051138 69 209 0.0 0.0 0.00 0.00 0.00 94 1013.5
20260905050633 69 229 0.0 0.0 0.00 0.00 0.00 94 1013.5
20260905050130 69 243 0.0 0.0 0.00 0.00 0.00 94 1013.5
20260905045629 69 192 0.0 0.0 0.00 0.00 0.00 94 1013.5
20260905045126 69 243 0.0 0.0 0.00 0.00 0.00 94 1013.2
20260905044625 69 229 0.0 0.0 0.00 0.00 0.00 94 1013.5
20260905044120 69 266 7.0 9.0 0.00 0.00 0.00 94 1013.5
20260905043618 69 206 0.0 0.0 0.00 0.00 0.00 94 1013.5
20260905043114 69 266 0.0 0.0 0.00 0.00 0.00 94 1013.2
20260905042613 70 241 0.0 0.0 0.00 0.00 0.00 94 1013.2
20260905042108 70 236 0.0 0.0 0.00 0.00 0.00 93 1013.5
20260905041603 70 269 6.0 7.0 0.00 0.00 0.00 93 1013.5
20260905041059 70 226 3.0 5.0 0.00 0.00 0.00 93 1013.2
20260905040559 70 270 0.0 0.0 0.00 0.00 0.00 92 1013.2
20260905040057 70 233 0.0 0.0 0.00 0.00 0.00 92 1012.9
20260905035552 70 234 0.0 0.0 0.00 0.00 0.00 92 1013.2
20260905035049 70 233 0.0 0.0 0.00 0.00 0.00 91 1012.9
20260905034545 70 245 0.0 0.0 0.00 0.00 0.00 91 1012.9
20260905034044 70 254 0.0 0.0 0.00 0.00 0.00 91 1012.9
20260905033538 70 240 0.0 0.0 0.00 0.00 0.00 91 1012.9
20260905033035 70 226 0.0 0.0 0.00 0.00 0.00 91 1012.9
20260905032535 70 256 0.0 0.0 0.00 0.00 0.00 91 1012.9
20260905032030 70 248 0.0 0.0 0.00 0.00 0.00 91 1012.9
20260905031526 70 273 0.0 0.0 0.00 0.00 0.00 91 1012.9
20260905031025 70 256 0.0 0.0 0.00 0.00 0.00 91 1012.9
20260905030521 70 234 0.0 0.0 0.00 0.00 0.00 90 1012.5
20260905030021 70 254 0.0 0.0 0.00 0.00 0.00 90 1012.9
20260905025516 70 228 0.0 0.0 0.00 0.00 0.00 90 1012.5
20260905025012 70 246 0.0 0.0 0.00 0.00 0.00 90 1012.5
20260905024507 70 236 0.0 0.0 0.00 0.00 0.00 90 1012.5
20260905024002 70 246 0.0 0.0 0.00 0.00 0.00 90 1012.5
20260905023457 70 266 0.0 0.0 0.00 0.00 0.00 90 1012.5
20260905022956 70 251 0.0 0.0 0.00 0.00 0.00 90 1012.5
20260905022451 70 226 7.0 9.0 0.00 0.00 0.00 89 1012.5
20260905021947 70 226 6.0 7.0 0.00 0.00 0.00 89 1012.5
20260905021446 71 253 3.0 7.0 0.00 0.00 0.00 88 1012.5
20260905020941 71 235 0.0 0.0 0.00 0.00 0.00 88 1012.5
20260905020436 71 234 0.0 0.0 0.00 0.00 0.00 88 1012.5
20260905015936 71 215 3.0 9.0 0.00 0.00 0.00 87 1012.5
20260905015433 71 218 0.0 0.0 0.00 0.00 0.00 87 1012.5
20260905014933 72 224 8.0 11.0 0.00 0.00 0.00 86 1012.5